Regional Weather Roundup
Issued by NWS

Home | Current Version | Previous Version | Text Only | Print | Product List | Glossary Off
Versions: 1 2 3 4 5 6 7 8 9 10 11 12 13 14 15 16 17 18 19 20 21 22 23 24 25 26 27 28 29 30 31 32 33 34 35 36 37 38 39 40 41 42 43 44 45 46 47 48 49 50

000
ASUS43 KIND 170059
RWRIN

WEATHER ROUNDUP FOR INDIANA
NATIONAL WEATHER SERVICE INDIANAPOLIS IN
900 PM EDT WED APR 16 2014

NOTE: "FAIR" INDICATES FEW OR NO CLOUDS BELOW 12,000 FEET WITH NO
SIGNIFICANT WEATHER AND/OR OBSTRUCTIONS TO VISIBILITY.

* - STATION DOES NOT REPORT WEATHER SUCH AS PRECIPITATION OR FOG.

+ - STATION NOT QUALITY CONTROLLED BY THE NATIONAL WEATHER SERVICE.
    USE DATA WITH CAUTION...ESPECIALLY DEWPOINT AND RELATIVE
    HUMIDITY OBSERVATIONS.

INZ001>003-010>013-019-020-170200-
NORTHWEST INDIANA

CITY           SKY/WX    TMP DP  RH WIND       PRES   REMARKS
RENSSELAER +   CLEAR     45  23  42 CALM      30.19R
VALPARAISO     CLEAR     45  22  40 SE13      30.19S

$$

LMZ046-743>745-170200-
SOUTHERN LAKE MICHIGAN

STATION/POSITION TIME  TEMP WIND        PRES
                       AIR  DIR/SP/G
                 (UTC) (F)  (DEG/KT/KT) (MB)
MICHIGAN CITY    0000   48  130/ 14/ 20   N/A

$$

INZ004-005-014>016-021>024-170200-
NORTH CENTRAL INDIANA

CITY           SKY/WX    TMP DP  RH WIND       PRES   REMARKS
ELKHART        CLEAR     45  19  36 SE13G18   30.24S
GOSHEN         CLEAR     44  23  43 SE10      30.24S
SOUTH BEND     CLEAR     45  22  40 SE16      30.22S

$$

INZ006>009-017-018-025>027-170200-
NORTHEAST INDIANA

CITY           SKY/WX    TMP DP  RH WIND       PRES   REMARKS
ANGOLA *+      CLEAR     39  27  60 SE10      30.27F
FORT WAYNE     MOCLDY    42  24  49 SE9       30.28R

$$

INZ028-029-035-036-043>045-051>053-170200-
WEST CENTRAL INDIANA

CITY           SKY/WX    TMP DP  RH WIND       PRES   REMARKS
GREENCASTLE +  MOCLDY    43  27  52 SE8       30.20S
LAFAYETTE      PTCLDY    46  22  38 SE9       30.20R
TERRE HAUTE    MOCLDY    47  25  42 SE8       30.18S

$$

INZ030>032-037>040-046>048-054>057-064-065-170200-
CENTRAL INDIANA

CITY           SKY/WX    TMP DP  RH WIND       PRES   REMARKS
COLUMBUS       CLEAR     46  25  42 SE7       30.23R
INDIANAPOLIS   MOCLDY    45  21  38 SE13      30.21R
-EAGLE CREEK   MOCLDY    46  19  34 SE9       30.21R
KOKOMO *+      PTCLDY    45  25  45 SE12      30.22S
MT COMFORT *+  MOCLDY    43  27  52 E7        30.23S
SHELBYVILLE    MOCLDY    47  24  40 SE9       30.22S

$$

INZ033-034-041-042-049-050-058-059-170200-
EAST CENTRAL INDIANA

CITY           SKY/WX    TMP DP  RH WIND       PRES   REMARKS
MUNCIE         MOCLDY    43  24  47 SE9       30.24S

$$

INZ060-061-067>069-081>083-085>088-170200-
SOUTHWEST INDIANA

CITY           SKY/WX    TMP DP  RH WIND       PRES   REMARKS
EVANSVILLE     MOCLDY    51  28  41 SE3       30.18R
HUNTINGBURG *+ PTCLDY    46  25  42 SE7       30.20R

$$

INZ062-063-066-070>080-084-089>092-170200-
SOUTH CENTRAL AND SOUTHEAST INDIANA

CITY           SKY/WX    TMP DP  RH WIND       PRES   REMARKS
BLOOMINGTON    MOCLDY    47  22  37 SE8       30.19F

$$




USA.gov is the U.S. government's official web portal to all federal, state and local government web resources and services.